Marion, SC

6:08 PM EDT on May 28, 2017 (GMT -0400)
Marion County

Weather History for KMAO - November, 2012

Change the Weather History Date:

Saturday, November 24, 2012

  Actual Average (KFLO) Record (KFLO)
Temperature  
Mean Temperature 44 °F -  
Max Temperature 55 °F 65 °F 83 °F (1973)
Min Temperature 33 °F 41 °F 19 °F (1970)
Degree Days  
Heating Degree Days 21    
Moisture  
Dew Point 33 °F    
Average Humidity 61    
Maximum Humidity 93    
Minimum Humidity 36    
Precipitation  
Precipitation 0.00 in - - ()
Sea Level Pressure  
Sea Level Pressure 30.01 in    
Wind  
Wind Speed 5 mph (NNW)    
Max Wind Speed 14 mph    
Max Gust Speed 20 mph    
Visibility 10 miles    
Events      
Averages and records for this station are not official NWS values.
T = Trace of Precipitation, MM = Missing Value Source: NWS Daily Summary

Daily Weather History Graph

Daily Weather History Graph

Search for Another Location

Airport or City:

Trip Planner

Search our weather history database for the weather conditions in past years. The results will help you decide how hot, cold, wet, or windy it might be!

Date:

Astronomy

Nov. 24, 2012 Rise Set
Actual Time 6:59 AM EST 5:09 PM EST
Civil Twilight 6:31 AM EST 5:36 PM EST
Nautical Twilight 6:01 AM EST 6:06 PM EST
Astronomical Twilight 5:31 AM EST 6:36 PM EST
Moon 2:46 PM EST (11/24) 3:22 AM EST (11/24)
Length of Visible Light 11h 04m
Length of Day
10h 09m
Waxing Gibbous, 87% of the Moon is Illuminated
Nov 24
Waxing Gibbous
Nov 28
Full
Dec 6
Last Quarter
Dec 13
New
Dec 20
First Quarter

Hourly Weather History & Observations

Time (EST) Temp. Windchill Dew Point Humidity Pressure Visibility Wind Dir Wind Speed Gust Speed Precip Events Conditions
12:15 AM 50.0 °F - 42.8 °F 76% 29.90 in 10.0 mi WSW 4.6 mph - N/A   Clear
12:35 AM 48.2 °F - 42.8 °F 82% 29.91 in 10.0 mi WNW 4.6 mph - N/A   Clear
12:55 AM 51.8 °F - 42.8 °F 71% 29.91 in 10.0 mi WNW 5.8 mph - N/A   Clear
1:15 AM 53.6 °F - 42.8 °F 67% 29.91 in 10.0 mi NW 4.6 mph - N/A   Clear
1:35 AM 51.8 °F - 42.8 °F 71% 29.91 in 10.0 mi WNW 6.9 mph - N/A   Clear
1:55 AM 51.8 °F - 41.0 °F 67% 29.92 in 10.0 mi NW 5.8 mph - N/A   Clear
2:15 AM 51.8 °F - 39.2 °F 62% 29.92 in 10.0 mi NW 6.9 mph - N/A   Clear
2:35 AM 51.8 °F - 39.2 °F 62% 29.93 in 10.0 mi NW 5.8 mph - N/A   Clear
2:55 AM 50.0 °F - 39.2 °F 66% 29.93 in 10.0 mi NW 5.8 mph - N/A   Clear
3:15 AM 50.0 °F - 39.2 °F 66% 29.93 in 10.0 mi NW 5.8 mph - N/A   Clear
3:35 AM 50.0 °F - 37.4 °F 62% 29.94 in 10.0 mi NW 5.8 mph - N/A   Clear
3:55 AM 48.2 °F - 37.4 °F 66% 29.94 in 10.0 mi NW 4.6 mph - N/A   Clear
4:15 AM 46.4 °F 44.3 °F 35.6 °F 66% 29.95 in 10.0 mi NW 4.6 mph - N/A   Clear
4:35 AM 46.4 °F 44.3 °F 35.6 °F 66% 29.95 in 10.0 mi WNW 4.6 mph - N/A   Clear
4:55 AM 44.6 °F 43.1 °F 35.6 °F 71% 29.96 in 10.0 mi WNW 3.5 mph - N/A   Clear
5:15 AM 44.6 °F - 35.6 °F 71% 29.97 in 10.0 mi Calm Calm - N/A   Clear
5:35 AM 44.6 °F - 33.8 °F 66% 29.97 in 10.0 mi Calm Calm - N/A   Clear
5:55 AM 44.6 °F 42.2 °F 33.8 °F 66% 29.98 in 10.0 mi NW 4.6 mph - N/A   Clear
6:15 AM 44.6 °F 42.2 °F 33.8 °F 66% 29.99 in 10.0 mi NW 4.6 mph - N/A   Clear
6:35 AM 44.6 °F 43.1 °F 32.0 °F 61% 30.00 in 10.0 mi NNW 3.5 mph - N/A   Clear
6:55 AM 42.8 °F - 32.0 °F 66% 30.00 in 10.0 mi Calm Calm - N/A   Clear
7:15 AM 37.4 °F - 33.8 °F 87% 30.01 in 10.0 mi Calm Calm - N/A   Clear
7:35 AM 37.4 °F - 33.8 °F 87% 30.02 in 10.0 mi Calm Calm - N/A   Clear
7:55 AM 39.2 °F - 35.6 °F 87% 30.02 in 10.0 mi Calm Calm - N/A   Clear
8:15 AM 42.8 °F - 35.6 °F 76% 30.03 in 10.0 mi Calm Calm - N/A   Clear
8:35 AM 46.4 °F 44.3 °F 33.8 °F 62% 30.03 in 10.0 mi NNW 4.6 mph - N/A   Clear
8:55 AM 48.2 °F - 33.8 °F 58% 30.03 in 10.0 mi NNW 6.9 mph - N/A   Clear
9:15 AM 50.0 °F - 32.0 °F 50% 30.04 in 10.0 mi NNW 13.8 mph 18.4 mph N/A   Clear
9:35 AM 50.0 °F - 32.0 °F 50% 30.04 in 10.0 mi North 12.7 mph 18.4 mph N/A   Clear
9:55 AM 50.0 °F - 32.0 °F 50% 30.04 in 10.0 mi NNW 10.4 mph - N/A   Clear
10:15 AM 51.8 °F - 32.0 °F 47% 30.05 in 10.0 mi NNW 9.2 mph - N/A   Clear
10:35 AM 51.8 °F - 32.0 °F 47% 30.05 in 10.0 mi North 11.5 mph - N/A   Clear
10:55 AM 51.8 °F - 32.0 °F 47% 30.04 in 10.0 mi North 10.4 mph - N/A   Clear
11:15 AM 51.8 °F - 32.0 °F 47% 30.03 in 10.0 mi NNW 6.9 mph - N/A   Clear
11:35 AM 53.6 °F - 32.0 °F 44% 30.02 in 10.0 mi NW 4.6 mph - N/A   Clear
11:55 AM 53.6 °F - 30.2 °F 41% 30.01 in 10.0 mi NW 8.1 mph - N/A   Clear
12:15 PM 55.4 °F - 32.0 °F 41% 30.00 in 10.0 mi NW 8.1 mph - N/A   Clear
12:35 PM 55.4 °F - 30.2 °F 38% 29.99 in 10.0 mi NW 8.1 mph - N/A   Clear
12:55 PM 55.4 °F - 28.4 °F 36% 29.99 in 10.0 mi NW 9.2 mph 19.6 mph N/A   Clear
1:15 PM 55.4 °F - 30.2 °F 38% 29.99 in 10.0 mi NW 8.1 mph - N/A   Clear
1:35 PM 55.4 °F - 28.4 °F 36% 29.98 in 10.0 mi NNW 6.9 mph - N/A   Clear
1:55 PM 55.4 °F - 28.4 °F 36% 29.98 in 10.0 mi NW 10.4 mph 16.1 mph N/A   Clear
2:15 PM 55.4 °F - 28.4 °F 36% 29.97 in 10.0 mi WNW 8.1 mph - N/A   Clear
2:35 PM 55.4 °F - 28.4 °F 36% 29.97 in 10.0 mi NNW 9.2 mph - N/A   Clear
2:55 PM 55.4 °F - 28.4 °F 36% 29.97 in 10.0 mi NNW 9.2 mph - N/A   Clear
3:15 PM 55.4 °F - 28.4 °F 36% 29.98 in 10.0 mi NNW 6.9 mph - N/A   Clear
3:35 PM 55.4 °F - 28.4 °F 36% 29.98 in 10.0 mi NW 9.2 mph - N/A   Clear
3:55 PM 55.4 °F - 28.4 °F 36% 29.99 in 10.0 mi NNW 9.2 mph - N/A   Clear
4:15 PM 53.6 °F - 28.4 °F 38% 30.00 in 10.0 mi North 6.9 mph - N/A   Clear
4:35 PM 53.6 °F - 28.4 °F 38% 30.00 in 10.0 mi NNW 6.9 mph - N/A   Clear
4:55 PM 51.8 °F - 28.4 °F 41% 30.01 in 10.0 mi NNW 5.8 mph - N/A   Clear
5:15 PM 50.0 °F - 28.4 °F 43% 30.02 in 10.0 mi North 4.6 mph - N/A   Clear
5:35 PM 50.0 °F - 28.4 °F 43% 30.02 in 10.0 mi North 3.5 mph - N/A   Clear
5:55 PM 46.4 °F 43.5 °F 30.2 °F 53% 30.03 in 10.0 mi North 5.8 mph - N/A   Clear
6:15 PM 44.6 °F 42.2 °F 30.2 °F 57% 30.04 in 10.0 mi North 4.6 mph - N/A   Clear
6:35 PM 42.8 °F - 32.0 °F 66% 30.05 in 10.0 mi Calm Calm - N/A   Clear
6:55 PM 41.0 °F - 32.0 °F 70% 30.05 in 10.0 mi Calm Calm - N/A   Clear
7:15 PM 39.2 °F 37.0 °F 33.8 °F 81% 30.06 in 10.0 mi North 3.5 mph - N/A   Clear
7:35 PM 39.2 °F - 32.0 °F 75% 30.07 in 10.0 mi Calm Calm - N/A   Clear
7:55 PM 37.4 °F - 32.0 °F 81% 30.07 in 10.0 mi Calm Calm - N/A   Clear
8:15 PM 35.6 °F - 32.0 °F 87% 30.08 in 10.0 mi Calm Calm - N/A   Clear
8:35 PM 35.6 °F - 32.0 °F 87% 30.08 in 10.0 mi Calm Calm - N/A   Clear
8:55 PM 33.8 °F - 32.0 °F 93% 30.09 in 10.0 mi Calm Calm - N/A   Clear
9:15 PM 35.6 °F - 32.0 °F 87% 30.10 in 10.0 mi Calm Calm - N/A   Clear
9:35 PM 33.8 °F - 32.0 °F 93% 30.10 in 10.0 mi Calm Calm - N/A   Clear
9:55 PM 33.8 °F - 32.0 °F 93% 30.11 in 10.0 mi Calm Calm - N/A   Clear
10:15 PM 33.8 °F 29.6 °F 30.2 °F 87% 30.11 in 10.0 mi North 4.6 mph - N/A   Clear
10:35 PM 35.6 °F 30.7 °F 28.4 °F 75% 30.12 in 10.0 mi North 5.8 mph - N/A   Clear
10:55 PM 37.4 °F 32.8 °F 26.6 °F 65% 30.12 in 10.0 mi North 5.8 mph - N/A   Clear
11:15 PM 37.4 °F 32.8 °F 26.6 °F 65% 30.13 in 10.0 mi North 5.8 mph - N/A   Clear
11:35 PM 37.4 °F 32.1 °F 24.8 °F 60% 30.13 in 10.0 mi North 6.9 mph - N/A   Clear
11:55 PM 35.6 °F 29.2 °F 24.8 °F 65% 30.13 in 10.0 mi NNE 8.1 mph - N/A   Clear